Time,TemperatureF,DewpointF,PressureIn,WindDirection,WindDirectionDegrees,WindSpeedMPH,WindSpeedGustMPH,Humidity,HourlyPrecipIn,Conditions,Clouds,dailyrainin,SoftwareType,DateUTC
2013-12-11 00:00:00,16.5,13.1,30.38,South,169,0.0,0.0,86,0.00,,---,0.00,VWS V14.01,2013-12-11 06:00:00,
2013-12-11 00:04:00,16.4,12.9,30.38,South,169,0.0,0.0,86,0.00,,---,0.00,VWS V14.01,2013-12-11 06:04:00,
2013-12-11 00:05:00,16.4,12.9,30.38,South,169,0.0,0.0,86,0.00,,---,0.00,VWS V14.01,2013-12-11 06:05:00,
2013-12-11 00:09:00,16.3,12.6,30.38,South,169,0.0,0.0,85,0.00,,---,0.00,VWS V14.01,2013-12-11 06:09:00,
2013-12-11 00:10:00,16.2,12.5,30.38,South,169,0.0,0.0,85,0.00,,---,0.00,VWS V14.01,2013-12-11 06:10:00,
2013-12-11 00:14:00,16.0,12.3,30.38,South,169,0.0,0.0,85,0.00,,---,0.00,VWS V14.01,2013-12-11 06:14:00,
2013-12-11 00:15:00,15.9,12.2,30.38,South,169,0.0,0.0,85,0.00,,---,0.00,VWS V14.01,2013-12-11 06:15:00,
2013-12-11 00:19:00,15.6,11.6,30.37,South,169,0.0,0.0,84,0.00,,---,0.00,VWS V14.01,2013-12-11 06:19:00,
2013-12-11 00:20:00,15.5,11.5,30.37,South,169,0.0,0.0,84,0.00,,---,0.00,VWS V14.01,2013-12-11 06:20:00,
2013-12-11 00:24:00,15.3,11.6,30.37,South,169,0.0,0.0,85,0.00,,---,0.00,VWS V14.01,2013-12-11 06:24:00,
2013-12-11 00:25:00,15.3,11.6,30.37,South,169,0.0,0.0,85,0.00,,---,0.00,VWS V14.01,2013-12-11 06:25:00,
2013-12-11 00:29:00,15.2,11.5,30.37,South,169,2.0,3.0,85,0.00,,---,0.00,VWS V14.01,2013-12-11 06:29:00,
2013-12-11 00:30:00,15.2,11.8,30.36,South,169,2.0,3.0,86,0.00,,---,0.00,VWS V14.01,2013-12-11 06:30:00,
2013-12-11 00:34:00,15.3,11.9,30.36,South,169,0.0,2.0,86,0.00,,---,0.00,VWS V14.01,2013-12-11 06:34:00,
2013-12-11 00:35:00,15.3,11.9,30.36,South,169,1.0,2.0,86,0.00,,---,0.00,VWS V14.01,2013-12-11 06:35:00,
2013-12-11 00:39:00,15.3,12.1,30.36,South,169,1.0,2.0,87,0.00,,---,0.00,VWS V14.01,2013-12-11 06:39:00,
2013-12-11 00:40:00,15.3,12.1,30.36,South,169,0.0,2.0,87,0.00,,---,0.00,VWS V14.01,2013-12-11 06:40:00,
2013-12-11 00:44:00,15.3,12.1,30.36,South,169,0.0,2.0,87,0.00,,---,0.00,VWS V14.01,2013-12-11 06:44:00,
2013-12-11 00:45:00,15.3,12.1,30.36,South,169,0.0,2.0,87,0.00,,---,0.00,VWS V14.01,2013-12-11 06:45:00,
2013-12-11 00:49:00,15.4,12.2,30.35,South,169,1.0,1.0,87,0.00,,---,0.00,VWS V14.01,2013-12-11 06:49:00,
2013-12-11 00:50:00,15.4,12.2,30.35,South,169,0.0,1.0,87,0.00,,---,0.00,VWS V14.01,2013-12-11 06:50:00,
2013-12-11 00:54:00,15.3,12.1,30.35,South,169,2.0,2.0,87,0.00,,---,0.00,VWS V14.01,2013-12-11 06:54:00,
2013-12-11 00:55:00,15.3,12.1,30.35,South,169,2.0,3.0,87,0.00,,---,0.00,VWS V14.01,2013-12-11 06:55:00,
2013-12-11 00:59:00,15.4,12.2,30.35,SSE,168,3.0,5.0,87,0.00,,---,0.00,VWS V14.01,2013-12-11 06:59:00,
2013-12-11 01:00:00,15.4,12.2,30.35,SSE,168,3.0,5.0,87,0.00,,---,0.00,VWS V14.01,2013-12-11 07:00:00,
2013-12-11 01:04:00,15.6,12.4,30.35,SSE,168,3.0,5.0,87,0.00,,---,0.00,VWS V14.01,2013-12-11 07:04:00,
2013-12-11 01:05:00,15.7,12.8,30.35,SSE,168,2.0,5.0,88,0.00,,---,0.00,VWS V14.01,2013-12-11 07:05:00,
2013-12-11 01:09:00,15.9,13.0,30.36,SSE,168,2.0,4.0,88,0.00,,---,0.00,VWS V14.01,2013-12-11 07:09:00,
2013-12-11 01:10:00,16.0,13.1,30.36,SSE,168,2.0,4.0,88,0.00,,---,0.00,VWS V14.01,2013-12-11 07:10:00,
2013-12-11 01:14:00,16.1,13.2,30.36,SSE,168,3.0,4.0,88,0.00,,---,0.00,VWS V14.01,2013-12-11 07:14:00,
2013-12-11 01:15:00,16.2,13.3,30.37,SSE,168,0.0,4.0,88,0.00,,---,0.00,VWS V14.01,2013-12-11 07:15:00,
2013-12-11 01:19:00,16.3,13.1,30.37,SSE,167,0.0,2.0,87,0.00,,---,0.00,VWS V14.01,2013-12-11 07:19:00,
2013-12-11 01:20:00,16.3,13.4,30.37,SSE,168,0.0,2.0,88,0.00,,---,0.00,VWS V14.01,2013-12-11 07:20:00,
2013-12-11 01:24:00,16.3,13.1,30.37,SSE,168,0.0,0.0,87,0.00,,---,0.00,VWS V14.01,2013-12-11 07:24:00,
2013-12-11 01:25:00,16.3,13.1,30.37,SSE,167,0.0,0.0,87,0.00,,---,0.00,VWS V14.01,2013-12-11 07:25:00,
2013-12-11 01:29:00,16.2,13.0,30.37,SSE,168,1.0,2.0,87,0.00,,---,0.00,VWS V14.01,2013-12-11 07:29:00,
2013-12-11 01:30:00,16.2,12.8,30.37,SSE,168,2.0,2.0,86,0.00,,---,0.00,VWS V14.01,2013-12-11 07:30:00,
2013-12-11 01:34:00,16.0,12.6,30.37,SSE,167,1.0,2.0,86,0.00,,---,0.00,VWS V14.01,2013-12-11 07:34:00,
2013-12-11 01:35:00,16.0,12.6,30.37,SSE,168,0.0,2.0,86,0.00,,---,0.00,VWS V14.01,2013-12-11 07:35:00,
2013-12-11 01:39:00,15.9,12.5,30.37,SSE,168,3.0,3.0,86,0.00,,---,0.00,VWS V14.01,2013-12-11 07:39:00,
2013-12-11 01:40:00,15.8,12.4,30.37,SSE,168,2.0,3.0,86,0.00,,---,0.00,VWS V14.01,2013-12-11 07:40:00,
2013-12-11 01:44:00,15.9,12.7,30.37,SSE,167,3.0,5.0,87,0.00,,---,0.00,VWS V14.01,2013-12-11 07:44:00,
2013-12-11 01:45:00,16.0,12.8,30.37,SSE,167,4.0,5.0,87,0.00,,---,0.00,VWS V14.01,2013-12-11 07:45:00,
2013-12-11 01:49:00,16.4,13.5,30.37,SSE,167,4.0,5.0,88,0.00,,---,0.00,VWS V14.01,2013-12-11 07:49:00,
2013-12-11 01:50:00,16.5,13.6,30.37,SSE,166,4.0,6.0,88,0.00,,---,0.00,VWS V14.01,2013-12-11 07:50:00,
2013-12-11 01:54:00,16.8,13.9,30.37,SSE,165,3.0,5.0,88,0.00,,---,0.00,VWS V14.01,2013-12-11 07:54:00,
2013-12-11 01:55:00,17.0,14.1,30.37,SSE,165,2.0,5.0,88,0.00,,---,0.00,VWS V14.01,2013-12-11 07:55:00,
2013-12-11 01:59:00,17.2,14.0,30.37,SSE,165,2.0,5.0,87,0.00,,---,0.00,VWS V14.01,2013-12-11 07:59:00,
2013-12-11 02:00:00,17.2,14.0,30.37,SSE,165,4.0,5.0,87,0.00,,---,0.00,VWS V14.01,2013-12-11 08:00:00,
2013-12-11 02:04:00,17.4,14.2,30.37,SSE,165,2.0,4.0,87,0.00,,---,0.00,VWS V14.01,2013-12-11 08:04:00,
2013-12-11 02:05:00,17.5,14.3,30.37,SSE,165,3.0,4.0,87,0.00,,---,0.00,VWS V14.01,2013-12-11 08:05:00,
2013-12-11 02:09:00,17.6,14.1,30.37,SSE,165,2.0,3.0,86,0.00,,---,0.00,VWS V14.01,2013-12-11 08:09:00,
2013-12-11 02:10:00,17.6,14.1,30.37,SSE,165,1.0,3.0,86,0.00,,---,0.00,VWS V14.01,2013-12-11 08:10:00,
2013-12-11 02:14:00,17.7,14.2,30.37,SSE,165,2.0,4.0,86,0.00,,---,0.00,VWS V14.01,2013-12-11 08:14:00,
2013-12-11 02:15:00,17.8,14.3,30.37,SSE,165,3.0,4.0,86,0.00,,---,0.00,VWS V14.01,2013-12-11 08:15:00,
2013-12-11 02:19:00,17.9,14.4,30.36,SSE,165,3.0,5.0,86,0.00,,---,0.00,VWS V14.01,2013-12-11 08:19:00,
2013-12-11 02:20:00,17.9,14.4,30.37,SSE,165,2.0,6.0,86,0.00,,---,0.00,VWS V14.01,2013-12-11 08:20:00,
2013-12-11 02:24:00,18.0,14.5,30.36,SSE,165,4.0,7.0,86,0.00,,---,0.00,VWS V14.01,2013-12-11 08:24:00,
2013-12-11 02:25:00,18.0,14.5,30.37,SSE,165,4.0,7.0,86,0.00,,---,0.00,VWS V14.01,2013-12-11 08:25:00,
2013-12-11 02:29:00,18.1,14.6,30.36,SSE,165,3.0,6.0,86,0.00,,---,0.00,VWS V14.01,2013-12-11 08:29:00,
2013-12-11 02:30:00,18.1,14.6,30.36,SSE,165,3.0,6.0,86,0.00,,---,0.00,VWS V14.01,2013-12-11 08:30:00,
2013-12-11 02:34:00,18.1,14.4,30.36,SSE,165,2.0,4.0,85,0.00,,---,0.00,VWS V14.01,2013-12-11 08:34:00,
2013-12-11 02:35:00,18.1,14.4,30.36,SSE,165,2.0,4.0,85,0.00,,---,0.00,VWS V14.01,2013-12-11 08:35:00,
2013-12-11 02:39:00,18.1,14.4,30.36,SSE,165,2.0,3.0,85,0.00,,---,0.00,VWS V14.01,2013-12-11 08:39:00,
2013-12-11 02:40:00,18.2,14.5,30.36,SSE,165,3.0,3.0,85,0.00,,---,0.00,VWS V14.01,2013-12-11 08:40:00,
2013-12-11 02:44:00,18.2,14.5,30.37,SSE,165,3.0,3.0,85,0.00,,---,0.00,VWS V14.01,2013-12-11 08:44:00,
2013-12-11 02:45:00,18.2,14.5,30.37,SSE,165,3.0,3.0,85,0.00,,---,0.00,VWS V14.01,2013-12-11 08:45:00,
2013-12-11 02:49:00,18.2,14.5,30.37,SSE,165,2.0,4.0,85,0.00,,---,0.00,VWS V14.01,2013-12-11 08:49:00,
2013-12-11 02:50:00,18.1,14.1,30.36,SSE,165,2.0,4.0,84,0.00,,---,0.00,VWS V14.01,2013-12-11 08:50:00,
2013-12-11 02:54:00,18.1,14.1,30.36,SSE,165,3.0,3.0,84,0.00,,---,0.00,VWS V14.01,2013-12-11 08:54:00,
2013-12-11 02:55:00,18.0,14.0,30.36,SSE,165,3.0,3.0,84,0.00,,---,0.00,VWS V14.01,2013-12-11 08:55:00,
2013-12-11 02:59:00,17.9,14.2,30.36,SSE,165,3.0,4.0,85,0.00,,---,0.00,VWS V14.01,2013-12-11 08:59:00,
2013-12-11 03:00:00,17.9,14.2,30.36,SSE,165,2.0,4.0,85,0.00,,---,0.00,VWS V14.01,2013-12-11 09:00:00,
2013-12-11 03:04:00,17.9,14.2,30.36,SSE,165,0.0,4.0,85,0.00,,---,0.00,VWS V14.01,2013-12-11 09:04:00,
2013-12-11 03:05:00,17.9,14.2,30.36,SSE,165,1.0,4.0,85,0.00,,---,0.00,VWS V14.01,2013-12-11 09:05:00,
2013-12-11 03:09:00,17.9,14.2,30.35,SSE,165,3.0,3.0,85,0.00,,---,0.00,VWS V14.01,2013-12-11 09:09:00,
2013-12-11 03:10:00,17.9,14.2,30.36,SSE,165,2.0,3.0,85,0.00,,---,0.00,VWS V14.01,2013-12-11 09:10:00,
2013-12-11 03:14:00,17.9,14.2,30.35,SSE,165,2.0,3.0,85,0.00,,---,0.00,VWS V14.01,2013-12-11 09:14:00,
2013-12-11 03:15:00,17.8,14.1,30.35,SSE,165,3.0,3.0,85,0.00,,---,0.00,VWS V14.01,2013-12-11 09:15:00,
2013-12-11 03:19:00,17.8,14.1,30.35,SSE,165,2.0,3.0,85,0.00,,---,0.00,VWS V14.01,2013-12-11 09:19:00,
2013-12-11 03:25:00,17.9,14.4,30.35,SSE,165,2.0,2.0,86,0.00,,---,0.00,VWS V14.01,2013-12-11 09:25:00,
2013-12-11 03:30:00,17.8,14.3,30.35,SSE,165,2.0,3.0,86,0.00,,---,0.00,VWS V14.01,2013-12-11 09:30:00,
2013-12-11 03:35:00,17.7,14.2,30.35,SSE,165,2.0,5.0,86,0.00,,---,0.00,VWS V14.01,2013-12-11 09:35:00,
2013-12-11 03:40:00,17.7,14.2,30.35,SSE,165,4.0,5.0,86,0.00,,---,0.00,VWS V14.01,2013-12-11 09:40:00,
2013-12-11 03:45:00,18.0,14.8,30.35,South,177,2.0,8.0,87,0.00,,---,0.00,VWS V14.01,2013-12-11 09:45:00,
2013-12-11 03:50:00,18.5,15.6,30.35,SSW,198,5.0,8.0,88,0.00,,---,0.00,VWS V14.01,2013-12-11 09:50:00,
2013-12-11 03:55:00,19.3,16.6,30.35,SSW,192,4.0,10.0,89,0.00,,---,0.00,VWS V14.01,2013-12-11 09:55:00,
2013-12-11 04:00:00,19.9,16.9,30.34,South,183,5.0,9.0,88,0.00,,---,0.00,VWS V14.01,2013-12-11 10:00:00,
2013-12-11 04:05:00,20.4,17.4,30.34,SSE,165,3.0,10.0,88,0.00,,---,0.00,VWS V14.01,2013-12-11 10:05:00,
2013-12-11 04:10:00,20.7,17.5,30.34,South,186,4.0,9.0,87,0.00,,---,0.00,VWS V14.01,2013-12-11 10:10:00,
2013-12-11 04:15:00,20.9,17.6,30.34,South,184,4.0,7.0,87,0.00,,---,0.00,VWS V14.01,2013-12-11 10:15:00,
2013-12-11 04:20:00,21.1,17.6,30.34,South,190,3.0,9.0,86,0.00,,---,0.00,VWS V14.01,2013-12-11 10:20:00,
2013-12-11 04:25:00,21.2,17.7,30.34,South,187,6.0,10.0,86,0.00,,---,0.00,VWS V14.01,2013-12-11 10:25:00,
2013-12-11 04:30:00,21.4,17.9,30.33,South,189,3.0,9.0,86,0.00,,---,0.00,VWS V14.01,2013-12-11 10:30:00,
2013-12-11 04:35:00,21.6,18.1,30.33,South,188,4.0,10.0,86,0.00,,---,0.00,VWS V14.01,2013-12-11 10:35:00,
2013-12-11 04:40:00,21.7,18.2,30.33,South,180,5.0,10.0,86,0.00,,---,0.00,VWS V14.01,2013-12-11 10:40:00,
2013-12-11 04:45:00,21.9,18.1,30.33,South,191,4.0,11.0,85,0.00,,---,0.00,VWS V14.01,2013-12-11 10:45:00,
2013-12-11 04:50:00,22.0,18.2,30.33,South,188,3.0,8.0,85,0.00,,---,0.00,VWS V14.01,2013-12-11 10:50:00,
2013-12-11 04:55:00,22.1,18.3,30.33,South,188,2.0,9.0,85,0.00,,---,0.00,VWS V14.01,2013-12-11 10:55:00,
2013-12-11 05:00:00,22.2,18.4,30.33,South,178,5.0,10.0,85,0.00,,---,0.00,VWS V14.01,2013-12-11 11:00:00,
2013-12-11 05:05:00,22.2,18.4,30.33,SSW,192,6.0,10.0,85,0.00,,---,0.00,VWS V14.01,2013-12-11 11:05:00,
2013-12-11 05:10:00,22.2,18.1,30.34,South,191,5.0,8.0,84,0.00,,---,0.00,VWS V14.01,2013-12-11 11:10:00,
2013-12-11 05:15:00,22.2,18.1,30.34,South,187,2.0,9.0,84,0.00,,---,0.00,VWS V14.01,2013-12-11 11:15:00,
2013-12-11 05:20:00,22.2,18.1,30.34,SSW,195,4.0,8.0,84,0.00,,---,0.00,VWS V14.01,2013-12-11 11:20:00,
2013-12-11 05:25:00,22.2,18.1,30.33,SSW,200,5.0,10.0,84,0.00,,---,0.00,VWS V14.01,2013-12-11 11:25:00,
2013-12-11 05:30:00,22.3,18.2,30.34,SW,215,5.0,9.0,84,0.00,,---,0.00,VWS V14.01,2013-12-11 11:30:00,
2013-12-11 05:35:00,22.4,18.3,30.34,SW,215,6.0,9.0,84,0.00,,---,0.00,VWS V14.01,2013-12-11 11:35:00,
2013-12-11 05:40:00,22.3,17.9,30.34,SSW,203,6.0,10.0,83,0.00,,---,0.00,VWS V14.01,2013-12-11 11:40:00,
2013-12-11 05:45:00,22.2,18.1,30.34,SSW,199,6.0,10.0,84,0.00,,---,0.00,VWS V14.01,2013-12-11 11:45:00,
2013-12-11 05:50:00,22.2,17.8,30.34,South,186,4.0,10.0,83,0.00,,---,0.00,VWS V14.01,2013-12-11 11:50:00,
2013-12-11 05:55:00,22.1,18.0,30.34,SSW,192,4.0,9.0,84,0.00,,---,0.00,VWS V14.01,2013-12-11 11:55:00,
2013-12-11 06:00:00,22.0,17.9,30.33,SSW,202,5.0,8.0,84,0.00,,---,0.00,VWS V14.01,2013-12-11 12:00:00,
2013-12-11 06:05:00,21.9,17.8,30.34,South,190,9.0,9.0,84,0.00,,---,0.00,VWS V14.01,2013-12-11 12:05:00,
2013-12-11 06:10:00,21.8,17.7,30.33,SSW,211,3.0,9.0,84,0.00,,---,0.00,VWS V14.01,2013-12-11 12:10:00,
2013-12-11 06:15:00,21.8,17.7,30.34,SSW,193,5.0,6.0,84,0.00,,---,0.00,VWS V14.01,2013-12-11 12:15:00,
2013-12-11 06:20:00,21.7,17.6,30.35,SW,219,10.0,10.0,84,0.00,,---,0.00,VWS V14.01,2013-12-11 12:20:00,
2013-12-11 06:25:00,21.6,17.5,30.35,SW,216,5.0,11.0,84,0.00,,---,0.00,VWS V14.01,2013-12-11 12:25:00,
2013-12-11 06:30:00,21.5,17.4,30.35,SW,224,6.0,9.0,84,0.00,,---,0.00,VWS V14.01,2013-12-11 12:30:00,
2013-12-11 06:35:00,21.3,17.2,30.35,SSW,213,7.0,9.0,84,0.00,,---,0.00,VWS V14.01,2013-12-11 12:35:00,
2013-12-11 06:40:00,21.2,17.1,30.36,SSW,205,5.0,5.0,84,0.00,,---,0.00,VWS V14.01,2013-12-11 12:40:00,
2013-12-11 06:45:00,21.0,17.2,30.35,SSW,202,5.0,5.0,85,0.00,,---,0.00,VWS V14.01,2013-12-11 12:45:00,
2013-12-11 06:50:00,20.9,17.1,30.35,SSW,207,4.0,5.0,85,0.00,,---,0.00,VWS V14.01,2013-12-11 12:50:00,
2013-12-11 06:55:00,20.8,17.0,30.35,SSW,207,12.0,12.0,85,0.00,,---,0.00,VWS V14.01,2013-12-11 12:55:00,
2013-12-11 07:00:00,20.8,17.0,30.35,South,191,5.0,5.0,85,0.00,,---,0.00,VWS V14.01,2013-12-11 13:00:00,
2013-12-11 07:05:00,20.7,16.9,30.35,South,191,5.0,5.0,85,0.00,,---,0.00,VWS V14.01,2013-12-11 13:05:00,
2013-12-11 07:10:00,20.6,17.1,30.35,SSW,208,3.0,8.0,86,0.00,,---,0.00,VWS V14.01,2013-12-11 13:10:00,
2013-12-11 07:15:00,20.6,17.1,30.35,SW,220,3.0,5.0,86,0.00,,---,0.00,VWS V14.01,2013-12-11 13:15:00,
2013-12-11 07:20:00,20.6,17.1,30.35,SW,222,7.0,8.0,86,0.00,,---,0.00,VWS V14.01,2013-12-11 13:20:00,
2013-12-11 07:25:00,20.6,17.1,30.36,SSW,210,5.0,5.0,86,0.00,,---,0.00,VWS V14.01,2013-12-11 13:25:00,
2013-12-11 07:30:00,20.7,17.2,30.36,SSW,205,2.0,6.0,86,0.00,,---,0.00,VWS V14.01,2013-12-11 13:30:00,
2013-12-11 07:35:00,20.7,17.2,30.36,SW,234,3.0,7.0,86,0.00,,---,0.00,VWS V14.01,2013-12-11 13:35:00,
2013-12-11 07:40:00,20.8,17.3,30.36,SW,223,4.0,9.0,86,0.00,,---,0.00,VWS V14.01,2013-12-11 13:40:00,
2013-12-11 07:45:00,20.9,17.4,30.35,SW,226,9.0,10.0,86,0.00,,---,0.00,VWS V14.01,2013-12-11 13:45:00,
2013-12-11 07:50:00,21.2,17.7,30.35,SSW,211,7.0,10.0,86,0.00,,---,0.00,VWS V14.01,2013-12-11 13:50:00,
2013-12-11 07:55:00,21.4,17.9,30.36,WSW,240,10.0,10.0,86,0.00,,---,0.00,VWS V14.01,2013-12-11 13:55:00,
2013-12-11 08:00:00,21.7,17.9,30.36,SW,215,7.0,11.0,85,0.00,,---,0.00,VWS V14.01,2013-12-11 14:00:00,
2013-12-11 08:05:00,22.0,18.2,30.36,SW,223,3.0,6.0,85,0.00,,---,0.00,VWS V14.01,2013-12-11 14:05:00,
2013-12-11 08:10:00,22.4,18.6,30.37,SW,226,9.0,11.0,85,0.00,,---,0.00,VWS V14.01,2013-12-11 14:10:00,
2013-12-11 08:15:00,22.8,18.7,30.37,WSW,253,5.0,7.0,84,0.00,,---,0.00,VWS V14.01,2013-12-11 14:15:00,
2013-12-11 08:20:00,23.1,19.0,30.37,SW,234,2.0,3.0,84,0.00,,---,0.00,VWS V14.01,2013-12-11 14:20:00,
2013-12-11 08:25:00,23.4,19.3,30.37,SSW,205,4.0,7.0,84,0.00,,---,0.00,VWS V14.01,2013-12-11 14:25:00,
2013-12-11 08:30:00,23.8,19.4,30.38,WSW,248,3.0,5.0,83,0.00,,---,0.00,VWS V14.01,2013-12-11 14:30:00,
2013-12-11 08:36:00,24.0,19.6,30.38,SW,227,4.0,8.0,83,0.00,,---,0.00,VWS V14.01,2013-12-11 14:36:00,
2013-12-11 08:41:00,24.3,19.9,30.38,West,275,8.0,8.0,83,0.00,,---,0.00,VWS V14.01,2013-12-11 14:41:00,
2013-12-11 08:46:00,24.8,20.1,30.38,West,278,7.0,7.0,82,0.00,,---,0.00,VWS V14.01,2013-12-11 14:46:00,
2013-12-11 08:51:00,25.4,20.4,30.39,WNW,285,5.0,6.0,81,0.00,,---,0.00,VWS V14.01,2013-12-11 14:51:00,
2013-12-11 08:56:00,26.0,20.7,30.39,West,266,11.0,13.0,80,0.00,,---,0.00,VWS V14.01,2013-12-11 14:56:00,
2013-12-11 09:01:00,26.5,21.2,30.39,West,272,5.0,6.0,80,0.00,,---,0.00,VWS V14.01,2013-12-11 15:01:00,
2013-12-11 09:06:00,26.9,21.3,30.39,West,278,4.0,6.0,79,0.00,,---,0.00,VWS V14.01,2013-12-11 15:06:00,
2013-12-11 09:11:00,27.4,21.1,30.39,WNW,297,8.0,10.0,77,0.00,,---,0.00,VWS V14.01,2013-12-11 15:11:00,
2013-12-11 09:16:00,27.6,21.0,30.40,West,259,8.0,16.0,76,0.00,,---,0.00,VWS V14.01,2013-12-11 15:16:00,
2013-12-11 09:21:00,27.7,21.4,30.40,NW,309,12.0,15.0,77,0.00,,---,0.00,VWS V14.01,2013-12-11 15:21:00,
2013-12-11 09:26:00,27.8,21.5,30.40,WNW,303,4.0,16.0,77,0.00,,---,0.00,VWS V14.01,2013-12-11 15:26:00,
2013-12-11 09:31:00,28.0,21.7,30.41,WNW,302,14.0,17.0,77,0.00,,---,0.00,VWS V14.01,2013-12-11 15:31:00,
2013-12-11 09:36:00,28.3,21.1,30.41,WNW,289,12.0,16.0,74,0.00,,---,0.00,VWS V14.01,2013-12-11 15:36:00,
2013-12-11 09:41:00,28.4,21.2,30.41,WNW,294,9.0,15.0,74,0.00,,---,0.00,VWS V14.01,2013-12-11 15:41:00,
2013-12-11 09:46:00,28.3,21.4,30.42,WNW,290,14.0,15.0,75,0.00,,---,0.00,VWS V14.01,2013-12-11 15:46:00,
2013-12-11 09:51:00,28.1,20.9,30.42,NW,319,14.0,21.0,74,0.00,,---,0.00,VWS V14.01,2013-12-11 15:51:00,
2013-12-11 09:56:00,27.9,21.0,30.42,NW,309,12.0,19.0,75,0.00,,---,0.00,VWS V14.01,2013-12-11 15:56:00,
2013-12-11 10:01:00,27.9,21.6,30.42,NW,319,6.0,14.0,77,0.00,,---,0.00,VWS V14.01,2013-12-11 16:01:00,
2013-12-11 10:06:00,28.1,21.8,30.42,WNW,297,21.0,21.0,77,0.00,,---,0.00,VWS V14.01,2013-12-11 16:06:00,
2013-12-11 10:11:00,28.7,22.1,30.43,NW,321,9.0,18.0,76,0.00,,---,0.00,VWS V14.01,2013-12-11 16:11:00,
2013-12-11 10:16:00,29.3,22.4,30.43,NW,309,12.0,23.0,75,0.00,,---,0.00,VWS V14.01,2013-12-11 16:16:00,
2013-12-11 10:21:00,29.2,21.6,30.43,WNW,298,10.0,20.0,73,0.00,,---,0.00,VWS V14.01,2013-12-11 16:21:00,
2013-12-11 10:26:00,29.2,22.0,30.43,NW,309,13.0,19.0,74,0.00,,---,0.00,VWS V14.01,2013-12-11 16:26:00,
2013-12-11 10:31:00,29.3,22.1,30.44,WNW,295,16.0,22.0,74,0.00,,---,0.00,VWS V14.01,2013-12-11 16:31:00,
2013-12-11 10:36:00,29.0,21.4,30.44,WNW,300,22.0,22.0,73,0.00,,---,0.00,VWS V14.01,2013-12-11 16:36:00,
2013-12-11 10:41:00,28.8,21.2,30.45,NW,315,17.0,22.0,73,0.00,,---,0.00,VWS V14.01,2013-12-11 16:41:00,
2013-12-11 10:46:00,28.8,21.2,30.45,WNW,302,12.0,19.0,73,0.00,,---,0.00,VWS V14.01,2013-12-11 16:46:00,
2013-12-11 10:51:00,28.8,20.9,30.45,NW,317,10.0,15.0,72,0.00,,---,0.00,VWS V14.01,2013-12-11 16:51:00,
2013-12-11 10:56:00,28.6,21.1,30.46,NW,307,7.0,11.0,73,0.00,,---,0.00,VWS V14.01,2013-12-11 16:56:00,
2013-12-11 11:01:00,28.5,20.6,30.46,NW,321,12.0,13.0,72,0.00,,---,0.00,VWS V14.01,2013-12-11 17:01:00,
2013-12-11 11:06:00,28.1,20.6,30.46,NW,318,11.0,17.0,73,0.00,,---,0.00,VWS V14.01,2013-12-11 17:06:00,
2013-12-11 11:11:00,28.0,20.8,30.46,NNW,329,4.0,7.0,74,0.00,,---,0.00,VWS V14.01,2013-12-11 17:11:00,
2013-12-11 11:16:00,28.0,20.5,30.46,NW,325,15.0,15.0,73,0.00,,---,0.00,VWS V14.01,2013-12-11 17:16:00,
2013-12-11 11:21:00,27.8,20.3,30.46,NNW,331,21.0,21.0,73,0.00,,---,0.00,VWS V14.01,2013-12-11 17:21:00,
2013-12-11 11:26:00,27.4,19.6,30.46,NNW,335,10.0,16.0,72,0.00,,---,0.00,VWS V14.01,2013-12-11 17:26:00,
2013-12-11 11:31:00,27.3,20.1,30.46,NW,307,5.0,8.0,74,0.00,,---,0.00,VWS V14.01,2013-12-11 17:31:00,
2013-12-11 11:36:00,27.5,20.3,30.46,NNW,336,6.0,12.0,74,0.00,,---,0.00,VWS V14.01,2013-12-11 17:36:00,
2013-12-11 11:41:00,27.8,20.6,30.46,NNW,331,15.0,17.0,74,0.00,,---,0.00,VWS V14.01,2013-12-11 17:41:00,
2013-12-11 11:46:00,27.9,20.1,30.46,North,360,11.0,14.0,72,0.00,,---,0.00,VWS V14.01,2013-12-11 17:46:00,
2013-12-11 11:51:00,27.9,20.1,30.46,NW,308,14.0,14.0,72,0.00,,---,0.00,VWS V14.01,2013-12-11 17:51:00,
2013-12-11 11:56:00,27.8,20.0,30.47,North,350,16.0,16.0,72,0.00,,---,0.00,VWS V14.01,2013-12-11 17:56:00,
2013-12-11 12:01:00,27.8,19.6,30.47,NNW,345,9.0,16.0,71,0.00,,---,0.00,VWS V14.01,2013-12-11 18:01:00,
2013-12-11 12:06:00,27.6,19.8,30.48,NNW,336,9.0,16.0,72,0.00,,---,0.00,VWS V14.01,2013-12-11 18:06:00,
2013-12-11 12:11:00,27.4,19.9,30.48,NNW,347,17.0,18.0,73,0.00,,---,0.00,VWS V14.01,2013-12-11 18:11:00,
2013-12-11 12:16:00,27.1,19.6,30.47,NNW,333,10.0,13.0,73,0.00,,---,0.00,VWS V14.01,2013-12-11 18:16:00,
2013-12-11 12:21:00,26.9,19.7,30.48,NW,305,11.0,15.0,74,0.00,,---,0.00,VWS V14.01,2013-12-11 18:21:00,
2013-12-11 12:26:00,26.7,19.5,30.47,NW,309,8.0,13.0,74,0.00,,---,0.00,VWS V14.01,2013-12-11 18:26:00,
2013-12-11 12:31:00,26.6,19.4,30.47,NW,325,7.0,11.0,74,0.00,,---,0.00,VWS V14.01,2013-12-11 18:31:00,
2013-12-11 12:36:00,26.4,19.6,30.48,NW,318,7.0,12.0,75,0.00,,---,0.00,VWS V14.01,2013-12-11 18:36:00,
2013-12-11 12:41:00,26.4,19.6,30.48,North,5,4.0,12.0,75,0.00,,---,0.00,VWS V14.01,2013-12-11 18:41:00,
2013-12-11 12:46:00,26.2,19.4,30.48,NNW,333,9.0,14.0,75,0.00,,---,0.00,VWS V14.01,2013-12-11 18:46:00,
2013-12-11 12:51:00,26.0,19.2,30.48,NW,322,7.0,13.0,75,0.00,,---,0.00,VWS V14.01,2013-12-11 18:51:00,
2013-12-11 12:57:00,25.8,19.0,30.48,NNW,327,4.0,9.0,75,0.00,,---,0.00,VWS V14.01,2013-12-11 18:57:00,
2013-12-11 13:02:00,25.9,19.4,30.49,NNW,333,9.0,15.0,76,0.00,,---,0.00,VWS V14.01,2013-12-11 19:02:00,
2013-12-11 13:07:00,25.7,19.2,30.49,NW,325,4.0,12.0,76,0.00,,---,0.00,VWS V14.01,2013-12-11 19:07:00,
2013-12-11 13:12:00,25.6,18.8,30.49,WNW,291,15.0,15.0,75,0.00,,---,0.00,VWS V14.01,2013-12-11 19:12:00,
2013-12-11 13:17:00,25.4,18.9,30.49,NNW,333,4.0,6.0,76,0.00,,---,0.00,VWS V14.01,2013-12-11 19:17:00,
2013-12-11 13:22:00,25.2,18.7,30.49,NW,325,4.0,15.0,76,0.00,,---,0.00,VWS V14.01,2013-12-11 19:22:00,
2013-12-11 13:27:00,25.2,19.0,30.49,WNW,296,14.0,17.0,77,0.00,,---,0.00,VWS V14.01,2013-12-11 19:27:00,
2013-12-11 13:32:00,25.0,18.5,30.49,NNW,331,6.0,14.0,76,0.00,,---,0.00,VWS V14.01,2013-12-11 19:32:00,
2013-12-11 13:37:00,25.0,18.5,30.49,WNW,292,12.0,17.0,76,0.00,,---,0.00,VWS V14.01,2013-12-11 19:37:00,
2013-12-11 13:42:00,25.0,18.5,30.49,NNW,338,9.0,12.0,76,0.00,,---,0.00,VWS V14.01,2013-12-11 19:42:00,
2013-12-11 13:47:00,25.0,18.5,30.50,NW,314,8.0,16.0,76,0.00,,---,0.00,VWS V14.01,2013-12-11 19:47:00,
2013-12-11 13:52:00,24.9,18.4,30.50,NNW,333,6.0,10.0,76,0.00,,---,0.00,VWS V14.01,2013-12-11 19:52:00,
2013-12-11 13:57:00,24.9,18.7,30.50,WNW,299,17.0,18.0,77,0.00,,---,0.00,VWS V14.01,2013-12-11 19:57:00,
2013-12-11 14:02:00,24.8,19.5,30.50,WNW,302,9.0,14.0,80,0.00,,---,0.00,VWS V14.01,2013-12-11 20:02:00,
2013-12-11 14:07:00,24.6,18.7,30.51,WNW,302,11.0,18.0,78,0.00,,---,0.00,VWS V14.01,2013-12-11 20:07:00,
2013-12-11 14:12:00,24.7,19.1,30.51,NW,308,20.0,20.0,79,0.00,,---,0.00,VWS V14.01,2013-12-11 20:12:00,
2013-12-11 14:17:00,24.6,18.7,30.51,NW,309,15.0,16.0,78,0.00,,---,0.00,VWS V14.01,2013-12-11 20:17:00,
2013-12-11 14:22:00,24.7,18.5,30.52,West,280,10.0,21.0,77,0.00,,---,0.00,VWS V14.01,2013-12-11 20:22:00,
2013-12-11 14:27:00,24.7,18.2,30.52,NW,311,12.0,20.0,76,0.00,,---,0.00,VWS V14.01,2013-12-11 20:27:00,
2013-12-11 14:32:00,24.5,17.7,30.52,NW,313,8.0,20.0,75,0.00,,---,0.00,VWS V14.01,2013-12-11 20:32:00,
2013-12-11 14:37:00,24.4,17.0,30.52,WNW,294,9.0,21.0,73,0.00,,---,0.00,VWS V14.01,2013-12-11 20:37:00,
2013-12-11 14:42:00,24.3,17.2,30.53,NW,313,10.0,14.0,74,0.00,,---,0.00,VWS V14.01,2013-12-11 20:42:00,
2013-12-11 14:47:00,24.3,17.2,30.53,WNW,297,7.0,17.0,74,0.00,,---,0.00,VWS V14.01,2013-12-11 20:47:00,
2013-12-11 14:52:00,24.2,17.7,30.53,NNW,327,9.0,13.0,76,0.00,,---,0.00,VWS V14.01,2013-12-11 20:52:00,
2013-12-11 14:57:00,24.1,17.0,30.53,WNW,303,14.0,18.0,74,0.00,,---,0.00,VWS V14.01,2013-12-11 20:57:00,
2013-12-11 15:02:00,24.0,16.9,30.53,North,350,4.0,11.0,74,0.00,,---,0.00,VWS V14.01,2013-12-11 21:02:00,
2013-12-11 15:07:00,24.0,16.3,30.54,NW,315,10.0,18.0,72,0.00,,---,0.00,VWS V14.01,2013-12-11 21:07:00,
2013-12-11 15:12:00,23.8,15.8,30.54,NW,304,10.0,13.0,71,0.00,,---,0.00,VWS V14.01,2013-12-11 21:12:00,
2013-12-11 15:17:00,23.7,15.7,30.54,WNW,296,13.0,18.0,71,0.00,,---,0.00,VWS V14.01,2013-12-11 21:17:00,
2013-12-11 22:12:00,7.9,0.8,30.68,NW,313,5.0,8.0,72,0.00,,---,0.00,VWS V14.01,2013-12-12 04:12:00,
2013-12-11 22:17:00,7.8,0.7,30.68,NW,313,3.0,6.0,72,0.00,,---,0.00,VWS V14.01,2013-12-12 04:17:00,
2013-12-11 22:22:00,7.7,0.6,30.68,NW,312,2.0,8.0,72,0.00,,---,0.00,VWS V14.01,2013-12-12 04:22:00,
2013-12-11 22:27:00,7.7,0.6,30.68,NW,312,6.0,7.0,72,0.00,,---,0.00,VWS V14.01,2013-12-12 04:27:00,
2013-12-11 22:32:00,7.6,0.5,30.68,NW,312,5.0,7.0,72,0.00,,---,0.00,VWS V14.01,2013-12-12 04:32:00,
2013-12-11 22:37:00,7.5,0.4,30.68,NW,312,5.0,6.0,72,0.00,,---,0.00,VWS V14.01,2013-12-12 04:37:00,
2013-12-11 22:42:00,7.3,0.2,30.68,NW,312,4.0,5.0,72,0.00,,---,0.00,VWS V14.01,2013-12-12 04:42:00,
2013-12-11 22:47:00,7.1,0.0,30.67,NW,312,3.0,6.0,72,0.00,,---,0.00,VWS V14.01,2013-12-12 04:47:00,
2013-12-11 22:52:00,7.0,0.2,30.68,NW,311,8.0,9.0,73,0.00,,---,0.00,VWS V14.01,2013-12-12 04:52:00,
2013-12-11 22:57:00,6.8,0.0,30.68,NW,307,7.0,8.0,73,0.00,,---,0.00,VWS V14.01,2013-12-12 04:57:00,
2013-12-11 23:01:00,6.8,0.0,30.68,NW,306,4.0,7.0,73,0.00,,---,0.00,VWS V14.01,2013-12-12 05:01:00,
2013-12-11 23:02:00,6.8,0.0,30.68,NW,307,7.0,9.0,73,0.00,,---,0.00,VWS V14.01,2013-12-12 05:02:00,
2013-12-11 23:03:00,6.8,0.0,30.68,NW,306,6.0,9.0,73,0.00,,---,0.00,VWS V14.01,2013-12-12 05:03:00,
2013-12-11 23:08:00,6.7,0.2,30.68,NW,306,4.0,8.0,74,0.00,,---,0.00,VWS V14.01,2013-12-12 05:08:00,
2013-12-11 23:13:00,6.7,0.5,30.68,NW,306,5.0,8.0,75,0.00,,---,0.00,VWS V14.01,2013-12-12 05:13:00,
2013-12-11 23:18:00,6.7,0.5,30.69,NW,307,4.0,8.0,75,0.00,,---,0.00,VWS V14.01,2013-12-12 05:18:00,
2013-12-11 23:23:00,6.6,0.4,30.70,WNW,300,7.0,9.0,75,0.00,,---,0.00,VWS V14.01,2013-12-12 05:23:00,
2013-12-11 23:28:00,6.7,0.5,30.70,WNW,302,9.0,10.0,75,0.00,,---,0.00,VWS V14.01,2013-12-12 05:28:00,
2013-12-11 23:33:00,6.7,0.5,30.69,WNW,302,4.0,8.0,75,0.00,,---,0.00,VWS V14.01,2013-12-12 05:33:00,
2013-12-11 23:38:00,6.7,0.8,30.69,NW,304,6.0,7.0,76,0.00,,---,0.00,VWS V14.01,2013-12-12 05:38:00,
2013-12-11 23:43:00,6.7,1.0,30.70,NW,305,4.0,9.0,77,0.00,,---,0.00,VWS V14.01,2013-12-12 05:43:00,
2013-12-11 23:48:00,6.7,0.8,30.70,NW,304,8.0,9.0,76,0.00,,---,0.00,VWS V14.01,2013-12-12 05:48:00,
2013-12-11 23:53:00,6.7,0.8,30.69,NW,307,6.0,8.0,76,0.00,,---,0.00,VWS V14.01,2013-12-12 05:53:00,
2013-12-11 23:58:00,6.7,1.0,30.69,WNW,300,4.0,9.0,77,0.00,,---,0.00,VWS V14.01,2013-12-12 05:58:00,